User: anonymous   Login
Location: Cadenet
(43.7345°N, 5.3750°E)
Time: 16:17:54
(UTC+00:00)
Language:

SKYMED 2 - Orbit

View from above orbital plane
View from above orbital plane
View from above satellite
View from above satellite

Ground track
Ground track

The orbit data is extracted from the following two-line orbital elements,

1 32376U 07059A   20152.16145324  .00000367  00000-0  52598-4 0  9997
2 32376  97.8858 335.5897 0001496  90.1967 269.9406 14.82154098675017
Epoch (UTC): 31 May 2020 03:52:29
Eccentricity: 0.0001496
inclination: 97.8858°
perigee height: 621 km
apogee height: 623 km
right ascension of ascending node: 335.5897°
argument of perigee: 90.1967°
revolutions per day: 14.82154098
mean anomaly at epoch: 269.9406°
orbit number at epoch: 67501

The dashed part of the orbit path shows where the satellite is in the earth's shadow,  

DLR